Location: Banios
(43.0451°N, 0.2335°E)
Time: 02:40:28
(UTC+00:00)

S-56A Canister/Altair - All Passes

Search period start: 12 May 2021 00:00
Search period end: 22 May 2021 00:00
Orbit: 632 x 2501 km, 38.9° (Epoch: 11 May)

Date Brightness Start Highest point End Pass type
(mag) Time Alt. Az. Time Alt. Az. Time Alt. Az.
12 May - 13:22:41 10° S 13:32:53 24° SE 13:43:33 10° E daylight
12 May - 15:23:36 10° SW 15:37:38 52° SSE 15:51:04 10° E daylight
12 May - 17:28:42 10° WSW 17:43:52 73° S 17:56:21 10° E daylight
12 May - 19:35:38 10° W 19:50:03 68° SSW 20:00:32 10° ESE visible
12 May - 21:43:17 10° W 21:54:34 37° SW 22:02:40 10° SSE visible
13 May - 12:50:38 10° S 12:59:45 21° SE 13:09:28 10° E daylight
13 May - 14:50:35 10° SW 15:04:10 49° SSE 15:17:46 10° E daylight
13 May - 16:55:11 10° WSW 17:10:18 72° S 17:23:22 10° E daylight
13 May - 19:01:53 10° W 19:16:42 71° SSW 19:27:51 10° ESE daylight
13 May - 21:09:22 10° W 21:21:37 42° SW 21:30:27 10° SSE visible
13 May - 23:20:21 10° WSW 23:24:11 12° SW 23:27:36 10° SW visible
14 May - 12:18:53 10° SSE 12:26:41 18° SE 12:35:04 10° E daylight
14 May - 14:17:43 10° SSW 14:30:44 46° SSE 14:44:21 10° E daylight
14 May - 16:21:47 10° WSW 16:36:42 70° SSE 16:50:17 10° E daylight
14 May - 18:28:11 10° W 18:43:15 73° S 18:55:05 10° ESE daylight
14 May - 20:35:30 10° W 20:48:35 47° SSW 20:58:07 10° SE visible
14 May - 22:45:11 10° W 22:51:33 16° SW 22:56:52 10° SSW visible
15 May - 11:47:37 10° SSE 11:53:41 14° SE 12:00:12 10° E daylight
15 May - 13:44:58 10° SSW 13:57:22 42° SE 14:10:49 10° E daylight
15 May - 15:48:28 10° WSW 16:03:06 68° SSE 16:17:07 10° E daylight
15 May - 17:54:32 10° W 18:09:45 74° S 18:22:13 10° ESE daylight
15 May - 20:01:40 10° W 20:15:26 52° SSW 20:25:41 10° SE visible
15 May - 22:10:37 10° W 22:18:50 20° SW 22:25:28 10° S visible
16 May - 11:17:32 10° SE 11:20:47 11° ESE 11:24:09 10° ESE daylight
16 May - 13:12:22 10° SSW 13:24:02 38° SE 13:37:10 10° E daylight
16 May - 15:15:17 10° WSW 15:29:30 66° SSE 15:43:52 10° E daylight
16 May - 17:20:59 10° W 17:36:11 75° S 17:49:16 10° ESE daylight
16 May - 19:27:54 10° W 19:42:12 56° SSW 19:53:08 10° SE visible
16 May - 21:36:18 10° W 21:46:02 25° SW 21:53:44 10° S visible
17 May - 12:39:55 10° SSW 12:50:49 34° SE 13:03:24 10° E daylight
17 May - 14:42:13 10° SW 14:55:55 63° SSE 15:10:30 10° E daylight
17 May - 16:47:30 10° W 17:02:33 76° S 17:16:12 10° E daylight
17 May - 18:54:11 10° W 19:08:52 60° SSW 19:20:29 10° SE daylight
17 May - 21:02:09 10° W 21:13:08 29° SW 21:21:47 10° S visible
18 May - 12:07:37 10° S 12:17:40 30° SE 12:29:30 10° E daylight
18 May - 14:09:15 10° SW 14:22:24 60° SSE 14:37:03 10° E daylight
18 May - 16:14:07 10° W 16:28:55 76° S 16:43:04 10° E daylight
18 May - 18:20:32 10° W 18:35:26 64° SSW 18:47:44 10° ESE daylight
18 May - 20:28:07 10° W 20:40:09 33° SW 20:49:40 10° SSE visible
19 May - 11:35:31 10° S 11:44:36 26° SE 11:55:27 10° E daylight
19 May - 13:36:24 10° SW 13:48:56 56° SSE 14:03:30 10° E daylight
19 May - 15:40:50 10° WSW 15:55:15 75° S 16:09:49 10° E daylight
19 May - 17:46:57 10° W 18:01:57 67° SSW 18:14:52 10° ESE daylight
19 May - 19:54:12 10° W 20:07:04 38° SW 20:17:23 10° SSE visible
19 May - 22:08:32 10° WSW 22:09:49 10° WSW 22:11:04 10° SW visible
20 May - 11:03:37 10° S 11:11:39 22° SE 11:21:12 10° E daylight
20 May - 13:03:40 10° SW 13:15:32 52° SSE 13:29:53 10° E daylight
20 May - 15:07:39 10° WSW 15:21:36 74° S 15:36:29 10° E daylight
20 May - 17:13:28 10° W 17:28:23 69° SSW 17:41:54 10° ESE daylight
20 May - 19:20:23 10° W 19:33:53 42° SW 19:44:58 10° SSE daylight
20 May - 21:31:25 10° W 21:37:03 14° WSW 21:42:07 10° SSW visible
21 May - 10:32:00 10° SSE 10:38:46 18° SE 10:46:43 10° E daylight
21 May - 12:31:04 10° SW 12:42:13 48° SSE 12:56:11 10° E daylight
21 May - 14:34:34 10° WSW 14:48:00 73° S 15:03:02 10° E daylight
21 May - 16:40:02 10° W 16:54:46 72° SSW 17:08:50 10° ESE daylight
21 May - 18:46:39 10° W 19:00:36 46° SW 19:12:25 10° SE daylight
21 May - 20:56:20 10° W 21:04:11 17° SW 21:11:06 10° SSW visible
